Temp
84 83 82 74 61 59 59 69 74 75 75 81 83 77 70 73 69 58 82 84 81 79 80 82 82 83 83 82 82 83 83 83 83 83 83 84 84 84 84 83 82 82 84 84 84 84 84 84 83
85 87 79 68 55 52 56 75 73 76 81 82 83 78 73 68 77 75 75 83 81 80 79 80 81 82 82 82 82 83 83 83 83 83 83 83 83 84 84 83 82 81 84 84 84 84 84 84 83
83 85 71 60 56 51 56 75 77 79 82 82 79 80 76 71 79 76 80 82 81 78 79 80 82 82 83 82 82 83 83 83 83 83 83 83 83 82 84 84 83 84 84 84 84 84 84 84 83
84 79 73 60 55 60 62 72 80 79 82 84 81 70 78 83 80 81 82 83 79 77 77 82 82 83 82 82 82 83 83 83 83 83 83 83 83 83 84 84 83 84 84 84 84 84 83 83 83
79 77 60 57 57 63 67 72 82 78 79 79 78 69 71 80 84 83 83 84 79 78 78 79 82 82 82 82 82 83 83 83 83 83 82 83 83 83 83 84 84 84 84 84 84 84 84 84 84
68 69 59 56 59 60 64 70 82 79 79 79 75 72 71 81 80 81 83 81 82 78 78 78 81 81 82 82 82 81 82 83 83 82 82 82 83 83 82 83 84 84 84 84 84 84 84 84 83
68 63 61 60 57 60 66 83 82 80 78 78 81 68 73 77 82 82 83 83 81 79 76 74 75 80 82 81 81 81 82 81 83 82 81 81 81 81 81 83 84 84 85 84 84 84 84 84 83
68 63 60 62 59 59 68 79 83 82 79 87 86 68 67 77 83 82 81 78 74 76 77 74 73 72 72 74 81 81 81 80 79 77 82 83 82 81 81 83 84 85 85 85 84 84 84 83 81
79 59 56 58 60 64 73 76 82 88 83 85 86 79 81 84 83 80 76 75 73 76 75 74 71 71 72 74 77 80 81 81 79 77 77 80 76 76 79 82 83 85 85 85 85 84 83 80 78
69 57 59 72 65 66 71 78 80 82 80 80 80 82 84 84 81 77 74 73 73 71 71 72 71 71 72 76 73 73 76 73 72 72 73 74 74 75 79 82 84 85 85 85 85 85 79 75 70
72 65 75 73 72 73 69 76 79 79 73 79 76 79 80 81 80 77 76 75 73 73 74 71 72 72 73 72 72 73 73 74 73 73 74 74 75 75 77 76 78 76 81 79 82 81 78 73 71
67 79 78 77 76 75 68 74 75 77 77 85 84 84 81 81 80 77 78 77 75 74 72 73 73 72 72 70 71 73 74 73 71 72 73 72 72 74 74 74 75 75 76 77 78 78 77 73 73
72 77 79 79 77 75 75 67 67 77 84 88 87 86 83 85 80 80 80 79 79 75 75 74 73 73 72 71 72 72 72 72 75 72 74 74 74 76 78 76 76 75 76 77 71 74 76 74 75
79 78 75 75 73 74 70 67 70 73 76 84 85 82 85 83 82 82 81 79 79 78 75 76 74 74 72 71 73 73 73 74 78 78 77 77 79 78 79 77 77 71 73 74 76 79 79 83 79
73 71 73 73 73 72 72 63 63 71 74 74 78 81 85 85 84 82 81 78 79 77 80 78 78 76 72 72 73 72 77 79 78 78 83 81 82 79 78 75 71 73 76 75 78 85 77 79 81
65 65 61 71 74 73 70 56 63 70 70 73 82 83 83 81 85 83 83 81 81 80 79 81 86 79 74 72 72 72 74 77 82 78 80 81 79 81 77 74 78 72 71 79 78 80 82 75 71
62 58 57 66 76 74 70 61 69 71 74 72 75 81 81 80 81 83 83 82 83 80 80 82 82 77 76 74 75 75 76 77 77 77 78 80 81 79 70 72 75 78 78 76 74 76 80 74 68
58 59 62 61 68 72 65 63 70 70 72 70 73 78 79 79 80 83 82 83 81 81 80 82 79 76 77 76 76 75 78 80 78 77 77 79 79 77 71 70 74 78 81 77 75 75 79 79 73
67 66 63 64 74 68 65 63 65 70 69 71 70 73 77 79 78 78 84 84 82 84 79 77 75 74 74 73 74 73 73 75 76 78 80 80 80 80 77 73 77 78 75 75 79 79 81 76 72
69 66 63 69 72 65 63 59 64 68 70 71 72 71 72 72 73 76 81 84 81 81 77 77 77 73 75 74 75 75 74 79 79 79 78 79 81 81 81 77 77 74 75 72 77 79 73 72 67
70 67 67 68 70 68 64 55 57 67 75 76 75 75 72 69 68 70 74 76 82 80 77 78 75 76 76 74 71 72 71 77 77 74 76 78 80 81 80 80 75 70 70 69 69 73 72 68 66
61 80 76 74 66 54 68 48 55 63 66 71 78 73 70 71 72 70 71 71 73 81 81 78 77 76 76 74 73 71 70 69 73 75 76 77 80 80 81 79 75 72 72 73 71 75 75 69 68
73 83 78 77 66 61 61 56 54 62 63 65 73 75 71 71 73 71 73 73 76 75 82 79 77 76 77 75 72 71 68 69 71 74 75 75 77 79 81 80 76 73 71 68 72 73 77 75 71
86 77 74 71 62 51 62 63 55 55 62 66 70 76 76 73 73 73 75 73 71 74 77 81 77 75 76 75 76 72 71 70 69 72 75 75 76 77 79 80 78 76 73 73 73 76 78 77 76
73 62 49 50 46 47 64 63 57 66 70 69 72 75 75 77 74 73 71 70 69 72 73 80 77 75 75 76 76 73 71 71 70 72 74 73 75 76 77 77 78 78 78 78 77 77 77 77 77
69 63 51 46 44 50 63 54 62 72 73 75 77 75 74 74 78 70 71 69 70 72 73 75 77 75 75 75 74 74 74 72 73 76 75 79 76 77 78 77 78 78 78 78 78 76 75 77 77
69 59 69 58 53 54 59 68 72 77 71 73 73 73 73 77 76 73 73 73 73 73 74 77 77 76 76 74 75 74 74 75 76 77 76 76 74 77 76 76 77 78 78 79 78 76 76 77 77
72 73 59 57 51 47 51 55 61 68 72 72 71 67 69 72 76 77 75 72 74 76 75 75 79 77 78 78 76 76 75 75 76 75 75 72 72 73 72 73 73 76 77 78 77 76 76 75 75
66 63 63 61 60 48 47 53 70 70 69 66 67 67 72 73 74 80 78 74 75 79 76 79 79 77 76 79 78 76 74 76 76 75 76 72 71 72 70 73 73 75 77 77 76 76 75 76 75
75 68 64 54 55 51 49 53 76 72 69 69 72 73 74 77 76 79 80 78 77 77 77 77 74 73 71 70 74 75 76 76 75 75 77 72 69 69 72 72 70 74 76 77 75 76 78 75 74
MSLP
1008.83 1009.33 1009.69 1010.04 1010.81 1011.88 1009.81 1007.84 1006.84 1005.76 1005.50 1005.75 1005.87 1007.04 1008.98 1009.19 1009.89 1011.83 1011.70 1012.09 1012.78 1013.40 1013.88 1014.12 1014.27 1014.47 1014.61 1014.74 1014.91 1015.05 1015.09 1015.23 1015.34 1015.42 1015.61 1015.68 1015.81 1015.77 1015.70 1015.66 1015.87 1016.00 1015.72 1015.76 1015.86 1016.15 1016.28 1016.53 1016.74
1008.51 1009.01 1009.99 1011.06 1012.78 1012.28 1010.50 1007.46 1006.25 1005.74 1005.83 1006.16 1006.55 1007.83 1009.04 1010.45 1010.82 1011.83 1012.25 1012.39 1012.81 1013.34 1013.88 1014.26 1014.47 1014.62 1014.79 1014.95 1015.06 1015.19 1015.32 1015.40 1015.52 1015.65 1015.79 1015.91 1015.93 1015.85 1015.86 1015.90 1016.02 1016.06 1015.86 1016.07 1016.14 1016.45 1016.60 1016.79 1017.02
1008.56 1008.94 1009.82 1011.98 1012.88 1012.71 1010.86 1007.43 1006.55 1006.37 1006.04 1006.54 1007.11 1008.06 1009.30 1010.79 1011.32 1012.18 1012.67 1012.69 1012.90 1013.66 1014.07 1014.40 1014.61 1014.76 1014.97 1015.13 1015.27 1015.45 1015.58 1015.65 1015.80 1015.95 1015.97 1016.16 1016.15 1016.24 1016.01 1016.00 1016.02 1016.06 1016.29 1016.49 1016.69 1017.02 1016.99 1017.13 1017.11
1008.02 1008.26 1009.11 1011.58 1012.83 1012.14 1010.77 1008.38 1006.45 1006.26 1006.46 1007.04 1007.37 1009.44 1010.49 1010.93 1011.47 1012.15 1012.65 1012.76 1013.32 1014.08 1014.34 1014.51 1014.72 1014.89 1015.10 1015.30 1015.52 1015.64 1015.78 1015.91 1015.96 1016.08 1016.10 1016.14 1016.30 1016.35 1016.13 1016.20 1016.30 1016.40 1016.57 1016.90 1017.26 1017.36 1017.54 1017.66 1017.52
1008.36 1008.38 1009.58 1011.57 1012.51 1012.06 1010.78 1009.25 1006.57 1006.52 1007.01 1007.52 1008.09 1010.38 1011.16 1011.62 1011.81 1012.34 1012.71 1013.13 1013.56 1014.16 1014.51 1014.68 1014.76 1014.95 1015.13 1015.35 1015.51 1015.68 1015.83 1015.98 1015.88 1015.99 1016.16 1016.24 1016.34 1016.48 1016.32 1016.46 1016.59 1016.65 1016.99 1017.23 1017.40 1017.81 1017.92 1017.76 1017.76
1008.78 1009.55 1010.50 1011.66 1012.76 1011.93 1010.92 1008.49 1006.29 1006.40 1007.09 1007.86 1008.82 1009.97 1011.63 1012.10 1012.36 1012.73 1012.91 1013.26 1013.61 1014.31 1014.67 1014.86 1014.97 1015.04 1015.19 1015.46 1015.67 1015.79 1015.83 1016.01 1015.91 1016.06 1016.23 1016.33 1016.42 1016.47 1016.56 1016.68 1016.71 1016.90 1017.24 1017.37 1017.74 1017.93 1017.77 1017.85 1018.05
1008.93 1010.38 1011.31 1011.82 1012.33 1012.17 1010.24 1007.12 1005.90 1006.13 1006.85 1007.74 1008.54 1010.05 1011.83 1012.33 1012.58 1012.83 1013.02 1013.61 1014.04 1014.43 1014.95 1015.40 1015.37 1015.27 1015.46 1015.65 1015.80 1015.90 1016.01 1016.20 1016.11 1016.20 1016.42 1016.54 1016.82 1016.94 1016.90 1016.74 1016.79 1017.10 1017.17 1017.57 1017.84 1017.94 1018.28 1018.40 1018.57
1009.76 1011.79 1012.12 1012.09 1012.43 1012.02 1009.89 1007.68 1006.32 1006.60 1006.96 1007.51 1007.78 1010.08 1011.40 1012.15 1012.47 1012.86 1013.32 1013.97 1014.62 1015.05 1015.17 1015.54 1015.78 1015.87 1015.96 1015.92 1015.87 1016.07 1016.34 1016.36 1016.57 1016.56 1016.39 1016.66 1017.04 1017.17 1017.14 1016.97 1017.01 1017.03 1017.40 1017.70 1017.89 1018.36 1018.44 1019.16 1019.36
1008.70 1011.31 1012.27 1012.17 1012.29 1011.14 1009.59 1008.32 1006.88 1006.46 1006.98 1007.17 1007.65 1009.18 1010.60 1011.56 1012.42 1012.99 1013.63 1014.41 1015.01 1015.42 1015.58 1015.65 1016.02 1016.06 1016.20 1016.33 1016.16 1016.46 1016.75 1016.70 1016.84 1016.81 1016.79 1017.07 1017.25 1017.16 1017.12 1017.05 1017.19 1017.17 1017.49 1017.82 1018.25 1018.44 1019.25 1019.18 1019.11
1008.10 1010.64 1010.56 1010.15 1010.46 1010.47 1009.40 1008.38 1007.68 1007.02 1007.06 1007.81 1008.83 1009.89 1010.71 1011.42 1012.19 1013.02 1013.83 1014.41 1015.20 1015.64 1015.98 1015.94 1015.96 1016.27 1016.31 1016.34 1016.62 1016.90 1016.96 1017.10 1017.26 1017.26 1017.29 1017.42 1017.36 1017.32 1017.17 1017.16 1017.25 1017.11 1017.41 1017.94 1018.35 1018.42 1019.63 1019.38 1018.27
1007.62 1008.75 1008.87 1009.40 1009.43 1009.74 1010.02 1008.94 1008.25 1007.61 1008.43 1008.21 1008.79 1009.91 1010.87 1011.41 1011.99 1012.85 1013.65 1014.19 1014.81 1015.52 1016.07 1016.17 1016.34 1016.44 1016.39 1016.62 1016.55 1016.78 1016.91 1017.11 1017.19 1017.21 1017.29 1017.48 1017.62 1017.62 1017.51 1017.42 1017.28 1017.20 1017.67 1017.90 1018.26 1018.19 1019.32 1020.01 1018.77
1008.09 1007.92 1008.14 1008.62 1008.99 1009.69 1010.29 1009.89 1009.30 1008.47 1008.79 1008.70 1009.19 1009.39 1010.77 1010.88 1011.63 1012.44 1013.16 1013.97 1014.62 1015.41 1015.98 1015.87 1016.23 1016.29 1016.62 1016.69 1016.62 1016.84 1016.84 1016.98 1017.18 1016.91 1017.17 1017.67 1017.83 1017.93 1017.71 1017.56 1017.30 1017.41 1017.53 1017.60 1017.57 1017.79 1017.41 1017.81 1018.15
1007.68 1007.90 1008.25 1008.82 1009.10 1009.72 1010.42 1010.35 1010.45 1009.72 1009.08 1008.91 1009.26 1009.39 1009.80 1010.36 1011.59 1012.26 1012.97 1013.61 1014.18 1015.02 1015.54 1015.75 1016.07 1016.24 1016.75 1016.99 1016.86 1016.93 1017.15 1017.27 1017.15 1017.23 1017.35 1017.56 1017.73 1017.62 1017.24 1017.20 1017.17 1017.81 1017.71 1017.61 1017.76 1016.76 1016.53 1017.73 1017.35
1008.23 1007.96 1008.95 1009.68 1009.85 1010.23 1010.62 1011.13 1010.29 1011.10 1010.66 1009.34 1009.25 1009.44 1009.65 1010.34 1011.54 1011.79 1012.84 1013.51 1013.94 1014.59 1015.25 1015.46 1015.81 1016.07 1016.27 1016.67 1016.62 1016.64 1016.67 1016.88 1017.18 1017.18 1017.22 1017.36 1017.11 1016.74 1016.70 1017.10 1017.10 1017.27 1017.37 1017.18 1017.06 1016.79 1015.99 1015.69 1016.42
1009.67 1008.96 1009.65 1010.06 1010.28 1010.44 1010.49 1011.84 1012.08 1011.24 1010.64 1010.31 1010.06 1009.54 1009.71 1010.42 1010.82 1011.65 1012.23 1013.01 1013.27 1014.38 1014.72 1015.04 1015.33 1015.59 1016.11 1016.46 1016.34 1016.36 1016.34 1016.53 1016.90 1016.86 1016.46 1016.58 1016.47 1016.49 1016.71 1017.39 1017.04 1016.63 1016.23 1016.73 1017.00 1015.82 1015.77 1016.90 1016.65
1010.05 1009.89 1009.90 1010.20 1010.17 1010.54 1010.88 1012.16 1012.32 1011.67 1011.55 1010.74 1009.71 1009.85 1010.08 1010.41 1010.76 1011.26 1012.12 1012.88 1013.31 1013.87 1014.42 1014.70 1014.93 1015.49 1015.75 1016.38 1016.02 1016.17 1016.20 1016.72 1016.39 1016.25 1016.07 1016.37 1016.51 1016.40 1016.72 1017.39 1017.01 1016.74 1016.68 1016.74 1016.59 1016.82 1016.84 1017.88 1017.11
1009.24 1009.71 1010.14 1009.92 1009.52 1009.72 1010.82 1011.75 1011.91 1011.76 1011.45 1010.68 1010.23 1010.07 1010.20 1010.34 1010.80 1011.29 1011.90 1012.48 1013.03 1013.67 1014.02 1014.63 1014.93 1015.19 1015.62 1015.91 1015.62 1015.62 1015.92 1016.57 1016.31 1016.22 1016.21 1016.36 1016.39 1016.75 1017.09 1017.42 1017.52 1017.08 1017.26 1017.10 1016.76 1016.65 1017.16 1018.46 1018.39
1008.87 1008.97 1009.46 1009.33 1009.50 1009.54 1010.48 1011.37 1011.97 1011.90 1011.14 1010.54 1011.02 1010.45 1010.32 1010.53 1011.03 1011.25 1011.87 1012.31 1012.94 1013.31 1013.61 1014.25 1014.88 1014.90 1015.14 1015.83 1015.80 1015.85 1015.90 1015.97 1016.31 1016.45 1016.42 1016.19 1016.53 1017.09 1016.57 1016.81 1016.84 1016.90 1016.57 1017.26 1016.75 1017.28 1017.35 1017.69 1018.91
1007.83 1007.82 1008.02 1008.74 1008.71 1009.24 1010.75 1011.50 1011.84 1011.62 1011.52 1011.12 1011.23 1011.18 1010.83 1010.74 1010.97 1011.54 1011.76 1012.23 1012.80 1013.10 1013.49 1014.25 1014.96 1015.26 1015.43 1016.02 1016.23 1016.31 1016.37 1016.22 1016.43 1016.35 1016.47 1016.32 1016.18 1016.73 1016.52 1017.16 1016.94 1016.67 1017.25 1018.00 1017.76 1017.23 1017.16 1017.58 1018.34
1006.26 1006.81 1007.38 1007.54 1008.34 1009.37 1010.67 1011.26 1010.86 1011.01 1010.86 1010.72 1010.63 1011.16 1011.44 1011.46 1011.44 1011.92 1012.46 1012.42 1012.84 1013.23 1013.71 1014.23 1014.76 1015.22 1015.33 1015.48 1015.82 1016.04 1016.14 1016.06 1016.24 1016.12 1016.30 1016.27 1016.08 1016.16 1016.37 1016.56 1017.14 1017.30 1017.79 1018.39 1017.81 1017.47 1017.37 1019.69 1020.51
1003.92 1004.87 1005.27 1005.82 1007.35 1009.10 1010.00 1011.67 1011.13 1010.33 1010.44 1010.72 1010.83 1010.77 1011.40 1011.90 1012.53 1013.34 1013.03 1013.39 1013.02 1013.26 1013.64 1014.00 1014.62 1015.04 1015.08 1015.54 1015.93 1015.83 1015.76 1015.86 1016.25 1016.48 1016.52 1016.50 1016.25 1016.27 1016.53 1016.58 1017.14 1017.98 1018.38 1018.53 1018.10 1018.02 1018.10 1019.71 1019.79
1002.48 1002.79 1003.78 1004.69 1006.38 1007.72 1008.31 1010.80 1011.24 1010.90 1010.43 1009.73 1009.55 1010.42 1011.23 1011.94 1012.57 1013.13 1013.79 1013.86 1013.81 1013.09 1013.28 1013.89 1014.18 1014.86 1015.02 1015.52 1015.44 1016.01 1015.87 1016.12 1016.33 1016.28 1016.37 1016.31 1016.34 1016.54 1016.55 1016.68 1017.21 1017.63 1017.58 1018.38 1017.90 1017.65 1017.85 1019.50 1019.00
1001.60 1001.59 1002.71 1003.83 1005.60 1006.34 1008.22 1008.80 1009.93 1010.13 1009.92 1008.71 1008.53 1009.07 1010.32 1011.33 1011.42 1012.08 1013.24 1013.66 1013.75 1013.71 1013.02 1013.42 1013.98 1014.51 1014.96 1015.16 1015.39 1015.76 1015.70 1016.25 1016.44 1016.37 1016.56 1016.31 1016.16 1016.26 1016.31 1016.39 1016.88 1017.62 1017.80 1018.54 1018.04 1017.93 1017.77 1017.97 1018.73
1000.89 1001.74 1002.69 1003.76 1005.55 1006.68 1006.45 1007.78 1008.75 1009.02 1007.57 1008.03 1008.20 1008.17 1009.21 1010.29 1010.97 1011.49 1011.63 1013.17 1014.30 1013.69 1013.21 1013.16 1013.61 1014.17 1014.61 1015.11 1015.15 1015.51 1015.80 1016.14 1016.17 1016.11 1016.15 1016.32 1016.35 1016.36 1016.19 1016.26 1016.45 1017.06 1017.47 1017.82 1017.78 1017.85 1017.75 1017.72 1017.60
1000.88 1002.24 1004.26 1006.00 1007.05 1007.62 1006.63 1006.44 1006.70 1007.06 1006.60 1006.37 1006.14 1006.97 1008.29 1009.17 1010.10 1011.63 1012.40 1013.47 1013.76 1013.02 1013.04 1013.41 1013.59 1013.97 1014.35 1014.76 1015.09 1015.44 1015.43 1015.66 1015.99 1015.98 1015.88 1016.22 1016.40 1016.46 1016.46 1016.55 1016.46 1016.71 1016.90 1017.11 1017.12 1017.63 1017.80 1017.96 1017.85
1001.11 1002.33 1004.35 1006.05 1007.57 1006.89 1006.03 1006.06 1005.28 1005.45 1005.65 1005.55 1005.58 1006.40 1008.02 1008.80 1009.80 1011.24 1011.99 1012.19 1012.34 1011.94 1012.94 1013.46 1013.47 1013.66 1014.10 1014.44 1014.68 1015.13 1015.43 1015.51 1015.65 1015.47 1015.50 1015.67 1015.82 1015.85 1015.87 1016.04 1016.00 1015.99 1016.31 1016.81 1016.98 1017.51 1017.76 1017.86 1017.79
1000.67 1001.83 1002.67 1004.62 1005.96 1006.84 1006.35 1005.27 1004.34 1004.89 1005.66 1005.68 1006.21 1007.05 1008.10 1008.76 1009.02 1010.02 1010.79 1010.96 1011.30 1011.79 1012.45 1012.64 1012.81 1013.02 1013.51 1014.09 1014.41 1014.74 1015.12 1015.30 1015.38 1015.15 1015.22 1015.53 1015.56 1015.45 1015.58 1015.83 1015.98 1015.75 1015.68 1015.99 1016.98 1017.34 1017.58 1017.60 1017.68
1000.11 1000.93 1002.60 1004.33 1005.91 1007.28 1007.87 1007.31 1004.81 1005.00 1005.27 1005.99 1006.64 1006.86 1007.20 1007.69 1008.69 1009.24 1009.70 1010.61 1011.21 1011.29 1011.85 1012.80 1012.30 1012.16 1012.15 1012.87 1013.85 1014.26 1014.65 1015.00 1015.23 1015.12 1015.31 1015.48 1015.17 1015.04 1015.67 1015.90 1016.49 1016.30 1016.01 1015.89 1016.10 1016.85 1017.33 1017.55 1017.51
1000.28 1000.90 1002.07 1003.36 1004.84 1006.36 1007.55 1006.20 1003.96 1004.19 1005.39 1006.27 1006.75 1006.67 1005.95 1007.15 1007.81 1007.56 1008.39 1009.48 1010.22 1010.77 1011.38 1010.42 1011.33 1012.58 1012.76 1012.40 1012.86 1013.58 1014.10 1014.53 1014.88 1015.04 1015.21 1015.21 1015.14 1014.82 1015.41 1015.19 1015.98 1016.44 1016.20 1016.13 1016.12 1016.39 1016.80 1017.09 1017.23
999.94 1000.50 1001.55 1003.37 1004.40 1005.81 1006.44 1005.32 1003.72 1004.11 1005.49 1006.08 1006.60 1006.72 1006.26 1006.61 1007.04 1006.53 1007.09 1008.58 1009.78 1010.11 1010.50 1010.39 1011.52 1010.84 1013.20 1013.77 1013.48 1013.03 1013.82 1014.23 1014.75 1015.00 1014.97 1015.74 1015.10 1015.26 1015.28 1015.25 1015.87 1016.09 1016.01 1016.12 1016.24 1016.42 1016.61 1017.01 1017.05
Wind_Speed
4 3 1 3 6 3 6 4 12 8 13 15 19 18 20 14 6 8 8 16 18 15 11 11 11 12 12 11 10 10 11 11 11 11 11 11 10 9 9 10 8 7 12 11 11 9 9 9 7
4 9 3 5 6 2 7 8 9 12 17 15 20 22 20 20 17 10 6 8 15 14 9 8 10 11 11 12 10 10 11 11 10 11 11 11 9 9 9 10 8 3 11 9 9 7 8 7 4
4 3 2 7 1 3 6 4 13 16 19 13 12 12 9 8 12 4 10 14 15 12 9 9 10 9 10 11 10 10 10 11 10 10 11 11 8 6 8 9 8 7 8 7 9 7 6 5 2
4 1 3 5 9 10 7 12 12 17 16 18 15 15 10 14 7 9 12 15 16 11 7 10 10 9 9 10 10 10 10 11 11 10 9 11 9 6 8 8 7 7 8 8 6 4 3 2 3
2 1 0 7 3 7 9 19 0 19 15 19 20 14 10 14 16 14 15 13 15 11 9 7 11 10 11 11 10 10 10 10 12 11 10 11 10 7 7 7 6 7 6 6 4 4 3 1 2
3 3 3 4 6 1 15 24 16 21 20 20 23 18 8 16 14 14 15 13 15 13 9 9 13 13 13 13 12 10 13 12 13 13 12 10 10 8 5 4 6 5 5 5 4 3 2 3 2
4 4 4 3 4 3 12 12 1 18 21 15 16 22 14 16 16 13 15 14 13 13 10 7 6 12 16 13 13 14 15 17 15 16 12 7 5 4 3 3 5 4 4 4 2 1 4 4 5
6 4 5 7 4 2 10 10 7 18 18 20 19 11 14 18 17 15 16 13 11 10 10 9 6 6 6 4 14 17 18 19 16 14 10 6 5 3 4 4 4 5 5 6 4 2 4 14 21
7 5 3 3 4 4 12 6 7 7 13 15 8 25 21 22 20 16 14 12 11 8 8 9 7 5 6 5 10 18 20 20 17 13 2 5 3 4 6 6 6 7 8 7 3 1 13 25 16
6 3 9 12 12 7 7 5 1 3 16 21 21 22 23 21 18 18 12 12 12 7 6 6 8 5 5 6 5 5 8 6 6 7 7 3 3 4 7 6 8 10 11 7 4 3 26 21 4
3 5 7 12 16 9 9 7 6 9 11 17 21 25 23 22 18 17 11 12 16 12 7 5 6 4 5 5 4 2 2 3 3 5 5 4 4 3 3 2 3 4 7 2 2 3 8 15 11
6 8 8 4 13 11 3 2 7 9 3 19 16 12 24 20 19 18 16 13 16 12 11 10 8 8 5 4 2 2 2 3 3 5 5 3 2 3 4 3 5 4 3 4 5 4 8 14 16
6 9 12 5 7 8 10 12 5 7 9 19 16 13 9 12 19 14 15 13 16 14 13 11 9 8 6 3 3 3 4 4 6 4 4 3 4 6 7 5 3 3 3 2 5 4 5 13 14
2 11 14 8 5 5 11 8 9 5 11 6 18 12 10 18 21 16 18 13 13 14 13 11 9 8 6 6 8 6 6 6 6 6 6 7 6 4 2 2 2 4 3 2 6 3 4 4 10
16 13 8 5 7 4 11 8 3 6 10 12 18 8 14 11 14 18 17 13 14 10 13 10 9 11 8 6 7 6 7 5 5 4 6 2 2 3 2 4 4 5 4 3 4 1 3 6 6
7 6 4 8 7 5 2 4 12 9 9 10 12 15 10 11 15 14 15 12 9 14 11 12 9 12 8 8 5 4 4 3 7 4 3 1 2 4 5 3 4 2 4 5 3 2 4 4 8
4 3 4 7 13 9 6 5 8 8 9 6 6 17 14 9 14 14 15 13 11 12 12 11 9 9 8 8 6 4 6 4 4 4 4 4 1 8 6 5 4 4 4 2 1 3 3 9 6
4 4 6 6 6 8 6 1 8 7 2 8 3 3 12 10 14 14 17 13 10 11 9 9 10 7 7 5 2 2 2 2 4 4 3 5 3 8 5 5 8 3 3 3 3 2 3 3 9
12 5 8 4 11 5 4 4 11 9 6 12 7 3 5 14 7 7 15 14 12 11 8 11 10 8 5 2 2 0 2 1 3 5 7 4 2 8 4 4 6 2 5 2 6 1 5 5 7
13 8 8 9 17 6 9 5 4 3 11 10 8 6 2 6 8 8 8 15 12 12 8 11 12 8 6 4 3 2 2 2 4 3 5 5 3 3 3 3 2 7 4 6 6 3 1 9 10
16 9 8 9 17 9 13 4 4 7 11 11 11 10 6 11 9 3 3 4 12 13 11 12 9 8 6 6 3 2 3 1 3 2 2 4 5 4 3 3 5 5 4 3 0 3 6 11 7
5 4 13 10 10 6 7 3 11 11 9 13 18 13 14 13 13 9 10 7 6 13 12 11 10 8 6 8 5 5 5 3 3 5 4 5 7 5 5 3 5 2 2 3 1 4 3 9 5
9 7 5 3 9 3 11 2 1 6 9 14 18 20 18 16 19 21 15 6 5 6 13 12 12 10 7 6 7 6 4 5 3 1 5 5 5 6 7 5 7 4 2 4 1 4 3 3 5
9 4 2 5 1 1 9 7 7 8 9 5 5 14 19 19 17 17 12 6 9 6 3 12 11 11 8 8 8 9 10 8 3 3 6 5 4 3 2 4 3 5 3 1 2 5 3 3 3
2 5 4 7 8 5 14 3 7 10 10 10 22 16 9 20 20 14 14 12 10 8 5 10 12 11 9 8 7 8 8 7 7 6 4 5 4 3 5 5 3 2 3 3 2 1 0 2 0
8 8 7 7 6 5 7 7 6 19 16 11 7 7 4 9 16 17 18 15 14 18 9 8 11 11 10 8 9 6 7 5 5 6 4 4 5 3 5 6 6 4 4 2 2 0 2 2 3
6 3 10 5 1 2 4 9 7 13 16 13 10 3 4 6 22 26 21 18 19 17 16 16 15 12 11 8 8 7 6 6 6 7 5 3 5 5 4 1 5 6 5 6 5 2 3 3 3
7 2 4 4 2 3 6 14 3 8 9 16 12 7 3 2 10 20 19 13 18 19 10 15 15 17 16 12 8 7 7 7 6 5 3 6 5 5 4 2 5 5 6 5 5 3 1 3 3
2 4 4 3 5 7 7 7 7 6 19 16 10 7 7 5 11 14 20 19 16 15 13 19 18 12 11 12 11 8 7 7 6 5 4 6 6 7 8 8 6 7 7 6 4 4 3 2 4
10 8 8 6 5 4 3 7 6 5 20 17 15 14 11 11 10 6 11 19 15 15 15 11 10 9 3 5 6 9 7 6 6 6 6 12 8 6 7 6 7 7 6 7 7 6 4 5 6
Wind_Direction
180 200 223 303 44 352 298 93 139 79 65 81 73 75 74 49 80 107 110 123 130 130 136 131 122 114 114 112 118 115 109 108 103 99 101 98 100 111 118 122 126 140 113 111 109 123 116 116 110
217 217 185 133 101 300 302 148 106 100 97 72 93 102 79 82 80 99 70 86 119 128 129 128 125 119 116 122 119 117 109 107 105 105 101 100 101 115 126 123 127 109 109 116 111 117 103 100 102
226 199 97 83 157 242 246 97 105 97 88 85 75 51 71 80 69 89 104 94 92 91 109 134 132 125 122 121 124 120 121 116 117 119 117 115 122 117 126 132 129 114 111 116 105 98 101 104 79
243 262 4 103 149 232 256 313 112 113 117 117 111 79 68 95 92 124 117 103 96 99 108 121 130 128 125 115 120 121 124 122 125 121 109 124 126 128 122 121 122 125 122 110 104 107 98 71 320
339 329 200 96 112 305 263 272 263 91 90 95 96 107 91 96 102 116 125 116 107 104 96 99 118 127 126 117 108 114 112 111 125 118 123 123 122 103 87 115 132 126 119 117 118 64 54 79 302
36 87 2 123 170 147 257 262 120 114 112 106 109 113 110 119 111 111 111 111 110 109 108 94 102 120 122 120 109 106 110 107 111 113 115 117 129 119 85 116 126 126 142 135 88 71 76 156 210
99 38 319 69 93 12 263 358 201 130 125 115 121 118 131 129 131 126 122 111 106 109 109 96 79 112 116 119 121 110 113 105 105 111 107 128 110 110 22 117 150 157 171 161 153 163 31 1 345
99 64 290 38 171 241 289 323 12 102 124 135 131 136 143 144 129 123 114 106 99 111 108 109 92 64 60 72 120 117 115 112 99 82 115 176 185 156 295 255 216 189 204 207 209 54 43 35 22
116 92 340 149 302 208 256 279 331 120 146 153 110 126 133 129 137 119 117 114 106 116 116 119 115 116 109 76 109 118 124 117 114 116 138 223 205 233 245 222 229 221 229 230 230 253 66 63 16
102 111 201 180 177 214 253 270 293 106 92 107 110 122 134 135 136 130 140 134 128 122 116 130 135 137 116 106 91 105 134 137 144 176 214 215 238 242 240 206 211 233 241 244 251 246 98 89 298
97 151 177 198 180 207 230 60 333 97 82 126 130 136 145 145 150 131 149 148 139 154 140 146 135 150 134 134 125 130 147 145 157 192 202 207 220 263 257 191 225 241 249 228 209 218 136 146 225
111 122 129 125 185 188 67 255 49 44 179 128 132 150 159 162 144 148 150 149 140 155 153 172 158 169 153 143 131 155 160 165 194 225 160 189 241 257 246 222 225 229 241 223 216 180 189 161 195
157 131 102 124 150 99 85 50 72 54 46 132 145 164 172 114 143 148 146 153 145 144 166 175 164 167 135 152 176 179 202 216 214 239 243 209 215 229 228 222 226 32 340 257 268 253 233 153 203
324 108 118 109 116 142 97 70 64 285 327 100 160 175 151 131 160 147 144 162 148 153 168 169 172 158 159 184 189 199 217 206 215 218 219 217 231 223 213 129 165 201 199 230 257 276 284 320 162
19 97 90 121 140 113 124 65 315 277 354 318 284 159 124 140 145 141 146 152 154 145 153 165 145 159 175 207 198 204 214 208 228 207 183 116 27 244 357 104 232 227 152 318 253 162 305 36 48
94 314 10 181 184 164 209 197 210 218 245 274 194 134 131 131 140 132 142 140 146 141 154 155 161 153 161 181 230 210 218 211 197 163 142 254 19 27 39 108 268 309 10 278 280 356 286 127 48
274 176 143 211 211 163 193 139 196 190 229 241 323 146 157 174 143 149 135 151 142 155 159 166 154 158 156 157 215 199 225 195 179 156 153 186 95 56 52 1 336 233 197 358 329 316 347 102 126
205 142 155 230 237 174 142 100 145 207 102 257 315 186 165 158 146 154 147 151 144 158 161 149 154 163 142 156 186 243 248 320 165 167 160 177 144 111 90 351 307 269 59 285 345 350 314 74 150
231 151 166 259 197 122 147 50 354 179 173 254 197 329 285 151 101 39 154 153 155 164 148 140 144 154 143 131 147 152 242 241 89 134 149 170 252 141 162 216 258 325 47 242 185 249 19 40 9
192 179 190 232 164 110 115 109 276 249 196 216 239 181 275 91 98 49 141 157 166 167 155 144 148 166 167 154 182 124 260 256 145 155 149 168 193 235 186 236 2 57 57 6 21 39 54 49 11
217 199 165 198 171 79 122 83 234 284 208 212 229 191 107 125 128 74 265 211 183 172 162 164 156 164 178 132 95 42 9 329 98 132 159 176 202 239 219 263 87 113 133 109 2 30 93 92 281
311 137 161 184 162 199 198 207 217 230 207 204 213 162 157 158 151 129 253 278 356 183 167 168 160 168 192 141 174 164 194 170 195 168 193 196 182 215 210 222 121 100 84 98 49 332 103 154 176
253 169 255 244 193 200 200 104 85 150 200 210 203 189 169 173 167 174 212 208 336 285 177 163 168 167 185 180 185 172 168 209 235 234 187 198 203 197 209 191 144 167 149 145 54 339 6 105 152
249 172 211 299 306 357 221 158 209 203 206 158 218 190 182 170 178 188 187 120 272 248 267 172 166 170 183 183 199 171 174 189 190 272 172 179 195 193 204 195 173 167 203 200 212 245 22 332 59
57 3 12 19 7 232 287 332 223 191 195 201 206 200 176 171 187 158 166 176 215 230 236 195 177 181 184 181 196 169 180 179 199 234 165 162 173 180 199 189 204 188 171 196 222 120 307 300 331
192 176 152 177 206 249 317 140 230 182 192 220 250 168 166 177 169 155 163 152 207 213 218 231 188 180 187 178 189 194 186 191 212 203 185 181 189 191 189 180 180 203 200 210 318 58 290 294 230
226 171 206 153 321 82 359 316 74 164 199 222 216 203 130 204 160 171 177 183 197 205 217 214 187 185 185 193 183 186 209 217 212 221 190 116 122 83 95 346 195 190 187 182 183 219 264 276 237
192 232 38 318 232 127 27 274 151 154 147 98 120 102 71 210 174 177 189 189 196 214 208 210 195 189 187 181 176 183 195 216 222 231 186 140 145 116 6 121 314 223 213 211 169 197 290 256 242
283 265 262 170 149 146 166 252 193 142 124 125 146 143 136 287 284 193 181 195 196 189 186 193 187 185 191 188 176 174 190 206 221 231 207 163 141 162 209 181 209 244 201 211 201 218 243 283 277
212 229 183 129 289 82 95 302 218 127 136 131 148 173 184 215 251 159 145 171 182 184 198 208 140 116 267 298 285 171 190 202 203 213 231 154 179 186 203 207 204 221 203 199 197 203 218 210 239